GFSNW_sfc_thetae_336.txt.gz
Theta_e
315 314 314 314 312 308 303 298 294 309 306 298 294 290 297 302 305 307 306 304 302 300 301 298 298 298 299 304 301 297 298 292 290 294 298 300 296 293 291 288 286 287 288 290
314 314 313 313 311 306 298 295 299 310 305 292 291 296 302 307 305 303 303 302 304 304 299 297 300 300 304 305 302 296 298 289 286 292 295 299 296 297 293 290 289 287 288 290
314 313 313 312 310 307 300 295 293 301 300 297 295 294 298 301 306 304 304 302 304 302 300 299 297 298 305 306 307 312 304 292 288 288 290 295 294 298 296 291 287 290 292 293
314 313 313 312 309 307 299 294 293 300 297 296 295 295 296 299 298 301 304 302 303 301 296 298 296 300 301 307 309 302 299 293 294 295 298 299 298 297 297 294 293 291 294 293
315 314 313 312 309 306 297 292 296 298 297 300 297 295 294 299 300 301 301 302 305 303 298 298 297 300 298 299 301 298 296 292 294 294 298 298 296 298 298 297 297 294 293 292
315 314 313 312 309 305 295 296 300 299 298 298 295 295 296 300 299 305 306 305 303 302 303 303 302 300 300 299 297 296 295 293 290 288 295 295 291 296 297 296 296 296 292 293
315 314 314 312 310 305 298 300 300 299 297 300 301 305 305 302 304 303 307 306 301 303 305 305 305 303 302 302 299 297 295 293 291 289 291 285 294 301 301 296 297 296 296 297
314 314 314 312 311 308 300 300 300 299 298 302 303 303 303 306 305 305 305 306 305 305 303 299 297 296 297 299 300 299 297 293 290 288 287 292 298 300 298 296 295 298 296 297
315 314 314 313 311 308 301 299 301 299 299 299 304 302 303 301 299 302 303 305 305 305 298 297 291 291 294 293 296 299 299 296 293 289 287 285 294 303 303 301 291 298 297 296
315 315 314 314 312 309 303 300 302 301 299 303 302 300 301 307 302 299 300 302 298 300 295 293 292 293 298 292 292 293 293 293 290 288 288 293 299 300 302 291 291 297 298 297
315 315 315 314 312 310 305 301 303 303 300 303 307 307 304 306 303 298 300 299 299 295 294 294 294 293 294 294 295 294 293 290 290 289 287 286 299 299 294 296 296 298 298 297
313 314 315 314 312 311 306 298 304 306 302 303 307 309 309 308 307 304 302 299 302 297 297 296 296 294 294 292 292 298 294 296 293 292 291 297 298 297 298 298 297 297 298 299
312 314 314 314 312 311 307 299 301 303 301 303 304 304 308 309 309 312 304 305 305 302 301 298 297 295 295 293 294 296 298 298 293 293 294 296 298 299 300 300 300 301 301 300
312 313 314 313 312 311 307 300 302 303 303 298 301 308 306 310 308 312 310 308 304 303 301 299 297 297 299 295 296 296 298 297 293 292 295 297 299 299 300 301 302 302 301 300
312 314 313 313 312 310 304 301 302 305 302 299 299 303 306 307 307 306 305 304 302 301 301 299 298 298 297 295 295 294 297 295 294 293 297 296 296 299 303 301 301 300 299 299
313 314 314 312 311 308 301 296 302 303 302 300 297 302 303 306 306 304 304 303 301 299 301 298 298 298 296 293 292 298 298 300 299 298 299 298 300 303 304 301 301 301 299 299
313 313 312 311 309 301 298 298 301 305 305 301 296 296 302 302 302 302 302 300 298 298 295 297 295 295 295 292 291 297 299 301 300 301 301 299 301 299 302 302 301 301 301 300
312 311 311 309 308 305 300 302 306 305 303 302 295 294 298 301 298 298 299 297 297 297 294 295 295 295 293 290 294 298 300 300 300 301 301 300 301 301 300 300 300 298 298 300
310 310 309 307 300 295 298 310 309 306 303 295 294 293 292 300 298 298 298 295 293 295 294 294 295 291 291 294 297 299 300 299 299 302 302 302 300 299 299 298 298 297 299 301
309 308 301 295 299 308 310 302 299 300 298 299 295 297 295 298 296 296 295 295 292 290 293 294 291 291 295 297 300 302 301 302 303 299 298 299 298 298 297 297 298 299 301 302
305 298 295 300 309 300 297 293 295 294 292 294 297 296 296 300 296 294 294 292 292 290 292 292 289 289 294 298 300 301 301 303 302 301 302 301 300 298 297 297 298 300 301 301
303 301 303 301 299 297 293 290 291 291 291 292 296 297 298 298 298 297 295 292 292 288 293 291 288 293 296 298 300 301 302 303 302 302 301 300 300 298 297 297 299 298 301 302
306 302 298 297 292 286 287 285 286 288 291 293 296 296 299 299 299 295 295 292 290 294 290 290 293 294 297 300 302 302 302 303 302 301 300 300 299 299 298 298 302 301 301 300
296 294 289 289 288 288 288 289 290 293 294 297 300 297 298 297 296 295 293 293 293 288 286 289 293 295 297 302 303 302 300 300 300 300 299 299 298 298 300 302 302 301 301 302
294 294 287 289 291 292 293 293 293 295 300 301 299 297 298 294 294 293 292 289 288 289 289 292 294 296 301 301 301 300 299 299 298 298 298 297 298 298 300 301 301 302 302 302
297 294 290 291 290 289 292 293 294 298 301 299 297 293 293 291 292 291 290 290 288 291 293 295 296 300 301 300 301 300 300 298 297 297 297 297 297 297 300 301 301 301 302 301
295 292 294 292 291 293 293 295 297 300 303 294 293 292 292 293 290 289 291 291 293 293 295 294 299 300 300 301 301 300 299 297 296 296 295 296 301 301 300 299 300 301 301 301

GFSNW_sfc_thetae_339.txt.gz
Theta_e
315 315 314 314 313 308 306 306 299 314 312 304 299 297 300 301 306 309 307 308 307 306 305 303 303 302 304 308 305 304 305 304 301 302 306 306 306 303 302 299 296 299 298 299
314 314 313 313 312 306 307 302 304 315 312 299 298 302 302 306 307 306 307 306 308 308 304 303 304 305 307 310 309 305 306 300 298 300 304 307 304 304 301 301 302 298 296 298
314 314 313 312 311 306 307 303 299 308 307 303 302 300 301 302 308 306 307 307 309 307 304 306 304 305 309 311 310 312 313 303 300 297 299 303 302 303 302 302 300 299 301 301
315 314 313 312 309 307 306 302 300 304 303 303 302 301 300 300 303 308 309 309 307 307 303 304 304 307 309 309 311 309 311 302 303 304 304 304 302 302 303 302 301 300 300 301
315 314 313 313 309 306 306 301 302 304 303 303 303 299 300 301 304 307 306 308 308 307 307 307 305 308 308 307 308 308 307 302 304 300 303 304 301 303 303 302 301 300 300 300
315 314 313 312 309 307 304 303 306 306 302 304 301 301 300 303 305 309 309 310 308 307 307 310 310 310 309 308 307 306 305 305 302 297 301 301 299 301 302 301 302 302 300 302
314 314 314 313 310 308 306 307 308 306 303 304 303 306 306 306 308 307 309 310 310 309 312 314 315 312 311 310 307 309 306 305 303 299 301 293 301 305 304 302 301 302 302 302
313 314 314 313 311 308 309 307 308 307 304 305 305 305 307 309 310 309 308 310 312 314 313 308 307 306 306 306 308 308 309 306 301 299 297 299 301 304 303 301 300 302 301 302
312 315 314 313 311 308 309 308 309 308 305 305 306 306 307 307 308 308 308 310 313 313 308 306 300 299 301 301 303 308 309 309 305 300 295 293 302 306 307 307 299 303 303 303
312 315 315 314 311 309 310 308 310 309 305 309 307 306 307 311 308 307 308 309 309 312 306 302 301 301 304 300 300 301 304 304 300 299 298 300 304 305 306 297 298 303 304 304
312 315 315 315 312 310 310 308 309 309 307 310 310 309 308 311 310 308 309 307 308 306 305 303 302 304 303 303 303 303 302 301 301 300 297 294 304 304 302 304 305 305 306 306
309 314 315 314 312 311 310 306 309 311 306 308 311 312 314 311 312 312 310 311 311 307 307 306 306 303 304 303 300 307 303 306 304 302 301 304 305 305 306 306 306 306 306 306
309 314 315 314 312 311 310 307 309 310 307 309 309 309 313 314 314 319 314 314 315 313 311 309 307 305 307 304 304 305 306 305 304 302 301 304 305 306 308 309 308 307 306 305
309 313 314 314 312 311 310 309 309 309 308 304 308 313 311 314 314 317 318 316 313 313 313 310 309 306 307 306 307 307 307 307 303 300 302 304 304 307 308 308 307 305 305 305
308 311 314 313 312 310 308 309 309 310 309 305 306 310 311 312 314 313 314 315 315 311 310 310 307 308 307 306 306 305 308 306 306 305 307 306 305 307 309 306 305 304 305 304
308 311 314 313 311 309 309 304 309 310 310 306 303 308 308 310 312 311 310 310 309 311 311 308 307 305 307 305 303 306 306 308 309 307 308 308 308 309 308 306 305 305 305 305
310 313 312 311 309 310 304 304 307 307 311 307 303 302 308 307 310 309 309 309 307 309 308 307 306 306 308 306 303 307 308 308 308 309 309 306 308 306 307 306 305 305 305 306
309 312 311 309 308 308 306 309 307 309 310 308 300 301 304 308 306 306 306 307 308 305 305 306 307 305 306 302 305 307 307 307 308 307 308 310 309 307 305 305 306 304 303 305
309 310 309 309 306 303 306 309 309 312 310 305 302 300 298 307 304 305 307 305 303 305 306 305 305 303 301 306 306 306 307 307 306 308 309 308 307 305 304 304 304 303 303 303
309 308 304 299 304 309 311 308 307 307 306 308 302 303 301 305 304 303 305 304 301 300 302 304 303 303 305 306 310 310 309 309 309 306 305 305 305 304 303 303 304 303 303 303
306 301 299 304 311 306 304 301 302 301 300 303 305 303 301 306 303 302 303 302 301 297 300 301 300 301 304 306 308 310 310 311 310 311 310 309 309 305 303 303 304 302 303 303
304 303 306 305 302 300 298 298 297 298 299 300 303 303 306 304 308 305 303 301 301 296 302 300 297 304 304 306 307 308 310 310 309 309 308 307 306 305 304 303 301 303 304 304
307 303 299 298 297 290 293 290 294 296 299 301 303 302 306 305 307 303 303 299 298 302 299 298 302 304 305 307 307 308 310 309 308 307 306 305 304 304 304 302 303 304 304 305
297 295 290 295 292 294 295 296 298 301 302 303 306 302 305 304 303 302 299 299 301 295 294 297 304 305 306 307 308 308 307 308 306 305 304 303 303 303 304 304 304 304 303 304
295 297 289 292 297 298 299 300 300 301 306 305 304 304 305 301 300 302 299 296 295 296 297 303 305 306 307 307 308 308 307 307 306 305 304 303 303 304 303 303 304 304 304 304
298 296 293 296 297 296 297 299 301 305 305 306 307 302 302 300 301 298 297 296 294 300 304 306 305 307 308 308 308 308 307 307 305 305 304 303 303 304 303 303 304 304 304 304
297 296 298 298 299 299 299 301 302 307 305 302 304 300 298 300 299 297 300 299 303 306 305 305 308 308 308 308 308 307 305 305 305 304 303 304 304 304 302 301 303 304 304 304

GFSNW_sfc_thetae_342.txt.gz
Theta_e
316 315 315 315 314 310 307 312 304 321 323 309 309 302 304 302 308 312 311 312 308 307 309 308 308 307 310 312 311 309 311 311 307 306 310 312 312 308 307 302 301 306 301 302
315 314 314 314 313 308 314 308 309 322 320 304 303 306 305 308 309 309 309 309 312 313 311 307 310 309 312 312 312 310 311 308 302 303 308 311 308 309 309 308 308 302 298 303
315 314 314 313 312 308 312 308 303 310 315 313 306 304 305 306 311 309 310 310 313 312 309 313 310 308 311 313 313 314 318 310 306 301 304 309 305 306 308 307 304 303 304 305
315 314 314 313 310 308 311 308 306 311 307 309 309 307 305 304 306 310 311 311 312 311 308 310 309 311 310 312 310 314 316 307 308 308 309 308 307 306 307 306 307 303 305 305
313 315 314 313 310 307 311 307 306 311 311 310 309 304 307 303 307 310 309 311 312 314 312 312 310 312 312 310 312 312 315 307 309 305 307 307 305 306 307 307 307 306 306 305
311 315 314 313 310 308 310 312 313 311 306 311 308 307 306 305 309 312 313 314 314 312 314 318 319 319 318 315 311 311 311 310 307 301 306 305 303 305 306 306 308 306 302 306
311 314 314 313 311 309 314 315 315 310 307 310 309 308 309 308 310 310 312 315 314 314 321 320 319 317 316 315 314 316 313 311 309 303 305 296 306 310 309 307 306 308 307 307
310 313 314 313 312 309 314 317 313 311 307 313 310 309 310 312 313 312 313 316 319 322 319 313 310 309 310 310 313 314 316 310 305 302 302 304 305 308 307 305 305 307 306 308
310 311 314 314 312 309 314 315 318 314 311 311 311 310 312 312 312 312 312 316 320 320 315 311 304 302 304 304 307 314 314 316 309 305 298 296 307 310 311 311 303 308 308 307
309 312 315 314 312 310 314 314 319 315 311 317 313 312 312 316 314 313 314 313 315 320 311 306 305 304 308 303 303 305 307 307 303 302 302 304 309 309 311 302 302 309 309 308
309 312 314 315 313 311 314 314 318 314 314 316 315 313 312 317 316 311 316 312 314 314 309 308 309 307 309 308 309 308 306 304 304 304 301 298 310 309 306 309 311 310 309 308
308 310 312 315 313 311 312 311 316 318 313 315 318 318 318 316 315 316 317 319 317 317 312 314 314 308 310 310 303 313 307 312 308 308 306 312 313 312 313 313 311 309 308 308
307 308 312 315 313 312 312 313 315 315 314 315 316 314 317 318 318 322 318 321 322 322 323 318 316 309 314 307 308 310 311 313 311 309 309 310 311 313 313 313 311 310 309 310
307 309 312 314 313 312 312 312 316 317 314 310 314 319 315 317 321 320 325 324 323 324 324 320 317 312 316 313 313 312 314 314 311 308 310 310 310 312 312 311 310 308 310 309
308 309 314 314 313 311 313 315 316 318 314 310 313 316 315 318 322 323 323 325 323 319 317 317 313 316 315 317 316 311 315 313 309 308 313 312 311 313 313 310 308 309 309 308
308 310 315 313 311 310 312 307 315 318 318 312 308 316 314 315 319 319 320 320 321 321 317 314 315 314 316 311 310 314 315 317 317 313 315 315 314 314 313 310 309 310 309 310
308 309 313 312 309 314 309 308 312 313 319 312 309 308 314 313 315 317 317 320 317 318 317 313 314 314 315 312 307 313 315 315 315 316 315 311 312 310 312 310 310 309 310 311
308 308 311 310 309 310 309 314 308 314 315 315 309 308 309 314 312 311 316 315 318 314 314 314 315 313 315 308 314 314 314 314 314 313 315 315 314 313 311 310 311 308 308 310
308 310 310 310 309 307 312 311 309 319 316 310 310 306 303 313 311 314 314 316 310 314 312 312 313 311 306 311 313 313 313 313 312 314 314 313 311 310 309 309 310 308 308 308
308 309 306 301 308 311 312 311 312 313 314 314 310 312 306 310 313 309 310 311 308 305 308 313 308 308 313 314 316 316 315 315 315 311 310 310 309 309 308 308 310 310 308 308
306 304 303 310 311 310 309 306 305 307 305 309 311 311 305 311 308 307 311 307 307 300 305 306 305 305 310 315 316 317 317 316 316 315 314 314 313 310 308 308 309 308 307 308
306 308 310 309 306 304 303 303 306 304 302 308 307 308 311 310 317 310 311 305 307 298 308 304 302 309 313 314 315 315 317 315 314 314 313 313 311 311 310 310 308 307 308 308
307 307 302 304 301 294 297 295 299 301 307 309 309 307 311 313 315 310 308 302 302 308 303 302 307 312 313 315 315 315 316 315 313 312 311 310 310 310 310 307 306 306 307 308
299 297 291 299 297 299 301 301 303 309 310 309 310 309 310 312 309 309 302 305 306 300 298 300 310 312 313 314 315 314 313 313 312 310 309 308 308 308 307 307 308 308 306 307
297 303 294 299 304 305 306 308 308 310 312 313 309 309 311 308 305 308 304 300 298 300 301 308 313 315 314 314 314 314 313 312 311 310 309 308 309 307 306 307 308 309 308 307
301 301 299 303 303 302 305 307 307 313 313 314 311 307 304 303 305 302 300 298 297 303 309 313 315 314 314 314 315 315 314 313 311 310 309 309 309 306 306 307 307 307 308 307
300 300 306 306 305 303 306 310 309 316 312 306 308 302 300 307 302 300 305 303 307 311 312 314 316 315 315 315 315 314 313 311 311 310 309 309 309 307 306 305 307 308 308 309

GFSNW_sfc_thetae_345.txt.gz
Theta_e
316 316 316 317 316 313 310 315 306 323 325 311 310 304 307 303 310 314 312 313 310 308 309 309 309 308 312 313 315 311 314 313 308 309 313 314 312 310 310 303 303 304 303 304
315 315 315 316 315 314 318 311 311 322 321 305 307 308 306 308 311 312 312 311 311 313 310 308 311 312 314 313 315 314 314 311 304 305 310 312 309 310 310 309 311 304 300 304
312 315 315 314 314 312 314 311 305 311 315 315 311 307 306 306 314 312 313 313 315 312 312 314 311 311 312 314 314 318 321 313 308 304 307 312 307 306 308 308 304 304 306 308
311 314 314 314 312 310 313 311 308 314 306 308 312 310 308 307 308 312 314 315 314 312 310 311 310 313 313 313 311 316 318 307 309 308 308 309 307 305 307 307 308 304 306 306
310 312 315 314 312 309 313 310 307 312 310 313 312 307 307 307 310 312 311 313 315 314 312 313 310 312 313 311 314 314 316 309 309 305 307 307 305 307 308 308 308 308 307 307
309 310 313 314 312 309 313 315 316 311 308 311 311 309 308 309 311 314 316 316 315 315 316 319 321 322 320 317 314 313 314 311 308 302 307 307 304 307 307 308 309 308 304 307
309 310 310 314 312 310 318 317 315 308 305 309 310 309 310 310 312 314 316 318 318 319 324 321 320 318 316 315 315 317 313 313 310 305 305 297 309 313 310 308 308 310 309 309
309 309 310 314 313 312 317 319 314 311 307 312 312 311 312 313 314 315 315 318 322 324 321 314 312 311 311 311 313 314 317 312 308 303 302 306 306 310 309 307 308 310 309 309
308 309 310 312 314 312 316 318 320 316 311 313 315 313 314 313 314 314 316 323 326 324 315 311 306 304 308 305 307 314 314 318 309 306 300 298 309 311 312 313 304 311 310 308
308 309 309 312 314 312 316 317 323 316 310 319 318 315 315 320 318 314 317 318 318 323 313 308 306 307 310 304 305 306 308 309 305 303 304 307 312 311 313 304 306 312 310 309
308 309 310 313 314 313 315 317 322 315 312 318 319 319 317 320 320 313 318 315 317 315 311 309 310 309 309 310 311 309 307 305 305 307 303 300 313 311 308 313 314 311 310 310
307 308 310 313 314 313 312 315 320 319 314 318 323 323 322 320 319 319 321 322 321 319 313 314 316 311 311 312 304 315 306 315 310 311 310 317 318 316 318 317 312 310 310 312
307 308 309 310 314 313 314 317 318 316 313 316 319 320 323 324 322 323 319 323 326 326 332 318 316 311 314 307 310 311 313 315 311 311 313 313 315 316 316 315 311 311 313 312
308 307 308 310 314 313 313 316 318 316 317 312 317 324 320 321 323 322 324 327 328 331 324 316 314 312 320 315 315 313 314 315 312 312 314 314 315 315 314 312 311 313 312 312
308 308 309 310 313 312 316 319 318 320 316 310 317 321 320 323 326 324 325 327 329 320 318 315 314 320 319 321 315 313 316 315 310 310 316 315 314 316 314 311 310 313 312 311
308 309 310 311 312 310 316 309 316 319 320 314 311 320 319 322 325 323 325 327 326 324 321 320 321 321 321 312 310 319 320 322 322 315 319 318 317 316 314 311 313 313 313 313
307 308 309 312 311 315 311 309 313 313 322 314 312 312 317 319 320 320 320 325 324 321 319 320 317 316 317 315 310 317 318 319 319 319 318 314 314 311 313 312 313 313 314 313
307 307 308 311 310 312 311 316 310 314 316 317 312 311 313 319 313 314 321 318 319 320 318 318 315 314 317 310 316 317 317 317 317 317 320 317 317 314 312 314 313 312 312 312
307 307 309 310 310 309 312 312 312 319 317 311 313 309 307 318 316 317 318 320 313 320 315 315 316 312 307 314 316 316 317 316 315 317 317 314 312 311 311 313 313 312 312 312
307 306 305 302 309 312 313 312 311 311 314 316 313 316 310 315 314 314 314 317 313 307 313 316 309 311 317 319 319 319 318 318 318 314 312 312 310 310 310 312 313 313 313 312
303 302 303 313 312 311 312 307 307 309 307 313 315 315 310 319 312 309 314 311 312 304 308 308 306 307 312 318 318 320 320 319 319 319 317 315 314 312 311 312 313 313 313 313
302 305 312 311 308 307 303 303 306 306 305 312 312 314 314 316 321 313 312 307 309 300 311 306 304 311 316 317 317 319 320 319 318 317 315 315 314 313 313 313 312 313 314 314
305 305 304 304 304 296 298 297 301 303 309 312 314 311 314 316 317 312 310 303 304 310 303 303 311 316 316 318 318 318 319 318 317 314 314 313 313 314 314 313 313 312 313 313
297 297 293 297 297 300 301 303 305 310 312 313 314 313 313 314 310 311 304 308 306 301 299 302 312 315 316 318 318 317 316 317 315 312 311 312 312 312 313 312 310 310 310 311
296 303 294 299 304 306 307 308 309 312 314 314 313 313 313 310 306 311 306 301 299 301 302 312 315 319 318 317 318 317 317 316 313 312 311 312 312 311 310 310 310 310 310 310
299 304 301 305 304 304 307 308 309 314 314 316 313 308 306 304 306 303 301 300 299 303 312 318 319 318 319 319 319 318 317 316 314 313 312 313 312 310 310 310 311 309 310 309
302 303 307 306 306 305 308 311 311 318 313 308 309 303 302 308 304 302 306 305 308 313 316 317 321 320 321 320 319 317 317 315 314 313 313 313 313 310 308 308 309 311 310 311